World > North America > United States > Pennsylvania

Hourly Bungy, PA Regional Weather

Feedback E-mail the Weather

Quick WX

Bungy, PA Weather Maps

°F °C°F °C
Bungy Weather Map
UTC Time: 7/1/2022, 07:43
Your Time:

Bungy, PA Regional Weather

Expires:202207010800;;479938
ASUS41 KCTP 010710
RWRCTP

REGIONAL WEATHER ROUNDUP
NATIONAL WEATHER SERVICE STATE COLLEGE PA
300 AM EDT FRI JUL 01 2022

Note: "fair" indicates few or no clouds below 12,000 feet with no 
significant weather and/or obstructions to visibility.

* = STATION THAT DOES NOT REPORT PRECIPITATION /E.G. RAIN...SNOW...ETC/
    THUNDER OR FOG.


PAZ004>006-010>012-017>019-024>028-033>037-041-042-045-046-049>053-010800-
CENTRAL PENNSYLVANIA
  
CITY           SKY/WX    TMP DP  RH WIND       PRES   REMARKS
BRADFORD       CLEAR     66  53  63 S3        30.12F                  
ST MARYS       CLOUDY    63  55  77 CALM      30.15F                  
DUBOIS         CLEAR     68  52  56 S6        30.11F                  
CLEARFIELD     CLEAR     60  55  83 CALM      30.12F                  
JOHNSTOWN      CLEAR     67  56  67 SW6       30.15F                  
SOMERSET       FAIR      64  55  72 SW6       30.17F                  
ALTOONA        CLEAR     63  56  78 CALM      30.13F                  
STATE COLLEGE  PTCLDY    69  55  61 CALM      30.11S                  
REEDSVILLE     FAIR      61  61 100 CALM      30.10                   
WELLSBORO      FAIR      64  54  68 CALM      30.12F                  
WILLIAMSPORT   CLEAR     63  55  75 N3        30.08F                  
SELINSGROVE    CLEAR     62  59  90 CALM      30.10F                  
FT INDIANTOWN  CLEAR     62  58  87 CALM      30.09F                  
CAPITAL CITY   CLEAR     76  64  66 E7        30.09F                  
HARRISBURG     PTCLDY    73  63  70 S7        30.09F                  
YORK           CLEAR     70  63  78 CALM      30.10F                  
$$


SKY/WX - Weather  TMP - Temperature  DP - Dew Point  RH - Humidity
WIND - Wind Direction/Speed PRES - Barometric Pressure VSB - Visibility
WCI - Wind Chill Index E13G22 Wind - East Wind 13 mph/Gusts of 22 mph

Trending Headlines

Bungy Radar Loop



Bungy Quick Facts


National Two Day Weather Forecast


E-mail the Bungy Weather Forecast

Voice your opinion or tell us about page issues...